Decimomannu, Italy

3:58 AM CEST on March 30, 2017 (GMT +0200)
Decimomannu Mil

Weather History for LIED - November, 2013

Change the Weather History Date:

Friday, November 15, 2013

  Actual Average Record
Temperature  
Mean Temperature 56 °F -  
Max Temperature 64 °F 62 °F 77 °F (2005)
Min Temperature 46 °F 44 °F 41 °F (2004)
Degree Days  
Heating Degree Days 9    
Growing Degree Days 6 (Base 50)    
Moisture  
Dew Point 48 °F    
Average Humidity 72    
Maximum Humidity 89    
Minimum Humidity 47    
Precipitation  
Precipitation 0.00 in 0.08 in - ()
Sea Level Pressure  
Sea Level Pressure 29.92 in    
Wind  
Wind Speed 11 mph ()    
Max Wind Speed 18 mph    
Max Gust Speed -    
Visibility 7.9 miles    
Events      
Averages and records for this station are not official NWS values.
T = Trace of Precipitation, MM = Missing Value Source: Averaged Metar Reports

Daily Weather History Graph

Daily Weather History Graph

Search for Another Location

Airport or City:

Trip Planner

Search our weather history database for the weather conditions in past years. The results will help you decide how hot, cold, wet, or windy it might be!

Date:

Astronomy

Nov. 15, 2013 Rise Set
Actual Time 7:07 AM CET 5:09 PM CET
Civil Twilight 6:39 AM CET 5:37 PM CET
Nautical Twilight 6:06 AM CET 6:10 PM CET
Astronomical Twilight 5:34 AM CET 6:42 PM CET
Moon 3:55 PM CET (11/15) 4:48 AM CET (11/15)
Length of Visible Light 10h 58m
Length of Day
10h 01m
Waxing Gibbous, 95% of the Moon is Illuminated
Nov 15
Waxing Gibbous
Nov 17
Full
Nov 25
Last Quarter
Dec 3
New
Dec 9
First Quarter

Hourly Weather History & Observations

Time (CET) Temp. Windchill Dew Point Humidity Pressure Visibility Wind Dir Wind Speed Gust Speed Precip Events Conditions
12:55 AM 59.0 °F - 50.0 °F 72% 29.92 in 6.2 mi NW 18.4 mph - N/A   Scattered Clouds
1:00 AM 59 °F - 50 °F 64% 29.92 in 9 mi NW 18.4 mph - -   Partly Cloudy
1:55 AM 59.0 °F - 48.2 °F 67% 29.89 in 6.2 mi NW 18.4 mph - N/A   Scattered Clouds
2:55 AM 59.0 °F - 48.2 °F 67% 29.89 in 6.2 mi NW 15.0 mph - N/A   Scattered Clouds
4:00 AM 56 °F - 48 °F 68% 29.92 in 9 mi NNW 8.1 mph - -   Scattered Clouds
4:55 AM 53.6 °F - 50.0 °F 88% 29.92 in 6.2 mi NNW 9.2 mph - N/A   Partly Cloudy
5:55 AM 53.6 °F - 48.2 °F 82% 29.89 in 6.2 mi NW 8.1 mph - N/A   Partly Cloudy
6:55 AM 51.8 °F - 48.2 °F 88% 29.89 in 6.2 mi NNW 8.1 mph - N/A   Partly Cloudy
7:00 AM 52 °F - 48 °F 82% 29.91 in 11 mi NNW 8.1 mph - -   Scattered Clouds
7:55 AM 51.8 °F - 46.4 °F 82% 29.89 in 6.2 mi NW 11.5 mph - N/A   Scattered Clouds
8:55 AM 55.4 °F - 48.2 °F 77% 29.89 in 6.2 mi NW 11.5 mph - N/A   Partly Cloudy
9:55 AM 57.2 °F - 50.0 °F 77% 29.89 in 6.2 mi NNW 11.5 mph - N/A   Partly Cloudy
10:00 AM 57 °F - 49 °F 68% 29.91 in 12 mi NNW 11.5 mph - -   Scattered Clouds
10:55 AM 60.8 °F - 48.2 °F 63% 29.89 in 6.2 mi NNW 18.4 mph - N/A   Partly Cloudy
11:55 AM 62.6 °F - 48.2 °F 59% 29.89 in 6.2 mi NNW 16.1 mph - N/A   Partly Cloudy
12:55 PM 62.6 °F - 48.2 °F 59% 29.89 in 6.2 mi NW 13.8 mph - N/A   Partly Cloudy
1:00 PM 63 °F - 48 °F 48% 29.90 in 12 mi NW 13.8 mph - -   Scattered Clouds
1:55 PM 64.4 °F - 46.4 °F 52% 29.89 in - NW 13.8 mph - N/A   Clear
2:55 PM 62.6 °F - 48.2 °F 59% 29.89 in - NW 13.8 mph - N/A   Clear
3:55 PM 62.6 °F - 48.2 °F 59% 29.92 in - NNW 13.8 mph - N/A   Clear
4:00 PM 63 °F - 48 °F 47% 29.92 in 12 mi NNW 13.8 mph - -   Clear
4:55 PM 59.0 °F - 46.4 °F 63% 29.92 in - NNW 9.2 mph - N/A   Clear
5:55 PM 57.2 °F - 48.2 °F 72% 29.92 in - NNW 8.1 mph - N/A   Clear
6:55 PM 53.6 °F - 44.6 °F 72% 29.95 in - North 6.9 mph - N/A   Clear
7:00 PM 54 °F - 44 °F 60% 29.97 in 12 mi North 6.9 mph - -   Clear
7:55 PM 51.8 °F - 48.2 °F 88% 29.95 in - NNW 4.6 mph - N/A   Clear
8:55 PM 51.8 °F - 48.2 °F 88% 29.95 in - North 4.6 mph - N/A   Clear
9:55 PM 50.0 °F - 46.4 °F 87% 29.98 in - NW 4.6 mph - N/A   Clear
10:00 PM 49 °F - 47 °F 89% 29.99 in 7 mi NW 4.6 mph - -   Clear
10:55 PM 48.2 °F - 44.6 °F 87% 29.98 in - Calm Calm - N/A   Clear
11:55 PM 46.4 °F 44.3 °F 42.8 °F 87% 29.98 in - North 4.6 mph - N/A   Clear